Location: Comstock Ranch
(38.0499°N, 120.2627°W)
Time: 22:45:52
(UTC+00:00)

Cosmos 2219 Rocket - Pass Details

Date: 08 September 2024
Orbit: 828 x 845 km, 71.0° (Epoch: 12 October)

Event Time Altitude Azimuth Distance (km) Brightness Sun altitude
Rises 12:48:04 0° 339° (NNW) 3,399 5.3 -10.3°
Reaches altitude 10° 12:50:32 10° 342° (NNW) 2,458 4.6 -9.9°
Maximum altitude 12:56:10 70° 66° (ENE) 887 2.6 -8.8°
Drops below altitude 10° 13:01:43 10° 150° (SSE) 2,431 4.8 -7.7°
Sets 13:04:09 0° 153° (SSE) 3,359 5.5 -7.3°
